EST,Max TemperatureF,Mean TemperatureF,Min TemperatureF,Max Dew PointF,MeanDew PointF,Min DewpointF,Max Humidity, Mean Humidity, Min Humidity, Max Sea Level PressureIn, Mean Sea Level PressureIn, Min Sea Level PressureIn, Max VisibilityMiles, Mean VisibilityMiles, Min VisibilityMiles, Max Wind SpeedMPH, Mean Wind SpeedMPH, Max Gust SpeedMPH,PrecipitationIn, CloudCover, Events, WindDirDegrees
2012-11-1,57,45,33,36,33,27,87,63,38,29.88,29.81,29.77,10,10,10,10,3,20,0.00,2,,295
2012-11-2,66,48,30,36,31,25,80,53,30,29.98,29.89,29.81,10,10,10,15,4,17,0.00,0,,267
2012-11-3,64,46,28,36,29,25,93,58,26,30.12,30.05,29.98,10,10,10,9,2,,0.00,0,,306
2012-11-4,59,50,42,43,37,32,87,64,51,30.07,30.00,29.96,10,10,10,8,4,,0.02,5,,58
2012-11-5,55,45,35,39,34,28,93,67,38,30.10,30.05,30.00,10,10,9,10,2,,0.02,2,,38
2012-11-6,46,38,30,32,29,27,87,67,53,30.12,30.04,29.92,10,10,10,12,3,17,0.00,6,,31
2012-11-7,53,42,32,34,30,27,87,67,41,29.95,29.89,29.83,10,10,10,7,1,,0.00,4,,348
2012-11-8,62,44,26,32,22,12,93,51,14,30.13,30.04,29.95,10,10,8,8,2,16,0.00,0,,329
2012-11-9,68,49,30,30,26,21,75,48,20,30.26,30.21,30.13,10,10,10,8,2,,0.00,0,,330
2012-11-10,73,52,30,37,31,27,93,51,19,30.40,30.32,30.26,10,10,5,10,2,16,0.00,0,,210
2012-11-11,73,54,35,52,43,30,88,64,38,30.49,30.43,30.39,10,10,10,13,3,21,0.00,1,,190
2012-11-12,73,60,46,57,53,43,94,75,53,30.42,30.30,30.19,10,8,0,10,3,18,0.00,2,,175
2012-11-13,64,54,42,57,46,39,93,84,71,30.39,30.29,30.16,10,9,3,13,5,22,0.11,7,,26
2012-11-14,51,42,33,37,30,27,93,63,41,30.46,30.40,30.35,10,10,10,16,7,21,0.00,3,,41
2012-11-15,42,40,37,39,34,28,93,77,57,30.36,30.29,30.23,10,9,5,13,6,18,0.70,8,,30
2012-11-16,55,46,37,39,36,30,93,71,44,30.37,30.30,30.25,10,10,9,9,2,,0.00,2,,37
2012-11-17,55,45,35,34,29,25,81,56,31,30.46,30.42,30.38,10,10,10,16,5,21,0.00,0,,42
2012-11-18,55,48,42,45,40,34,87,72,62,30.43,30.37,30.32,10,10,5,16,9,23,0.01,7,,34
2012-11-19,59,52,44,45,42,39,81,68,59,30.31,30.25,30.17,10,10,10,15,8,23,0.01,6,,29
2012-11-20,59,48,37,45,40,36,93,77,55,30.17,30.12,30.06,10,10,8,7,2,,0.00,2,,25
2012-11-21,60,46,32,43,33,28,93,68,34,30.18,30.13,30.09,10,8,0,10,2,,0.00,0,,26
2012-11-22,60,45,30,30,27,21,80,56,23,30.26,30.19,30.15,10,10,10,15,2,20,0.00,0,,14
2012-11-23,66,46,26,39,31,21,93,58,29,30.17,30.03,29.90,10,10,10,17,3,20,0.00,1,,240
2012-11-24,53,43,30,36,21,14,61,41,26,30.14,30.01,29.90,10,10,3,10,4,17,0.00,0,,343
2012-11-25,51,36,21,23,18,12,93,51,26,30.20,30.12,30.05,10,10,10,13,4,17,0.00,0,,231
2012-11-26,64,46,28,27,23,19,80,46,19,30.22,30.16,30.10,10,10,10,9,3,,0.00,0,,216
2012-11-27,59,50,42,45,36,27,93,62,39,30.23,30.16,30.10,10,10,5,13,6,17,0.06,6,,242
2012-11-28,53,40,26,37,30,23,93,70,38,30.39,30.31,30.23,10,10,5,9,3,,0.00,1,,18
2012-11-29,55,38,21,30,25,18,93,67,35,30.49,30.42,30.38,10,10,10,9,1,,0.00,0,,223
2012-11-30,62,44,26,37,31,21,93,65,31,30.41,30.35,30.30,10,10,8,10,2,,0.00,0,,227